Location: Caltech
(34.1382°N, 118.1253°W)
Time: 23:40:51
(UTC-07:00)

Iridium 14 - Visible Passes

Search period start: 18 June 2018 00:00
Search period end: 28 June 2018 00:00
Orbit: 776 x 779 km, 86.4° (Epoch: 18 June)

Date Brightness Start Highest point End Pass type
(mag) Time Alt. Az. Time Alt. Az. Time Alt. Az.
18 Jun 8.0 00:42:08 10° NW 00:45:05 19° WNW 00:45:05 19° WNW visible
18 Jun 7.6 22:27:51 10° NNE 22:31:15 20° ENE 22:31:15 20° ENE visible
19 Jun 7.2 00:07:42 10° NNW 00:11:44 35° WNW 00:11:44 35° WNW visible
19 Jun 6.3 23:33:50 10° N 23:38:23 63° NW 23:38:23 63° NW visible
20 Jun 6.3 23:00:23 10° N 23:05:03 56° ENE 23:05:03 56° ENE visible
21 Jun 8.4 00:43:26 10° NW 00:45:31 13° WNW 00:45:31 13° WNW visible
21 Jun 7.1 22:27:20 10° NNE 22:31:43 30° ENE 22:31:43 30° ENE visible
22 Jun 7.7 00:08:13 10° NNW 00:12:11 25° W 00:12:11 25° W visible
22 Jun 7.8 21:55:02 10° NE 21:58:07 16° ENE 21:58:23 16° E visible
22 Jun 6.7 23:34:04 10° NNW 23:38:52 47° W 23:38:52 47° W visible
23 Jun 5.9 23:00:22 10° N 23:05:33 86° NE 23:05:33 86° NE visible
24 Jun 6.4 22:27:04 10° NNE 22:32:03 44° E 22:32:14 44° E visible
25 Jun 8.1 00:09:05 10° NW 00:12:19 17° W 00:12:43 17° W visible
25 Jun 7.3 21:54:15 10° NNE 21:58:21 23° E 21:58:57 23° E visible
25 Jun 7.3 23:34:27 10° NNW 23:39:03 32° W 23:39:25 32° W visible
26 Jun 8.0 21:22:40 10° NE 21:24:33 12° ENE 21:25:39 11° E visible
26 Jun 6.2 23:00:30 10° N 23:05:40 63° W 23:06:08 60° WSW visible
27 Jun 5.9 22:26:58 10° N 22:32:10 67° E 22:32:52 60° SE visible
